Terminal Aerodrome Forecast
Issued by NWS Houston/Galveston, TX

Home | Current Version | Previous Version | Text Only | Print | Product List | Glossary On
Versions: 1 2 3 4 5 6 7 8 9 10 11 12 13 14 15 16 17 18 19 20 21 22 23 24 25 26 27 28 29 30 31
590
FTUS44 KHGX 120107 AAA
TAFGLS
TAF AMD
KGLS 120107Z 1201/1224 20009KT P6SM SKC
     FM120900 19006KT 4SM BR SCT007
      TEMPO 1211/1215 1SM BR BKN003
     FM121630 21011KT P6SM FEW020=

USA.gov is the U.S. government's official web portal to all federal, state and local government web resources and services.